Weather History for Erzincan, Turkey

Change the Weather History Date:

Tuesday, November 6, 2012

  Actual Average Record
Temperature  
Mean Temperature 50 °F -  
Max Temperature 67 °F 50 °F - ()
Min Temperature 32 °F 32 °F - ()
Degree Days  
Heating Degree Days 16    
Moisture  
Dew Point 37 °F    
Average Humidity 71    
Maximum Humidity 100    
Minimum Humidity 22    
Precipitation  
Precipitation 0.00 in 0.05 in - ()
Sea Level Pressure  
Sea Level Pressure 30.13 in    
Wind  
Wind Speed 1 mph ()    
Max Wind Speed 2 mph    
Max Gust Speed -    
Visibility 6.0 miles    
Events      
T = Trace of Precipitation, MM = Missing Value Source: Averaged Metar Reports

Daily Weather History Graph

Daily Weather History Graph

Search for Another Location

Airport:

Trip Planner

Search our weather history database for the weather conditions in past years. The results will help you decide how hot, cold, wet, or windy it might be!

Date:

Astronomy

Nov. 06, 2012 Rise Set
Actual Time 5:56 AM EET 4:14 PM EET
Civil Twilight 5:27 AM EET 4:42 PM EET
Nautical Twilight 4:55 AM EET 5:14 PM EET
Astronomical Twilight 4:24 AM EET 5:46 PM EET
Moon 10:30 PM EET (11/6) 11:37 AM EET (11/6)
Length of Visible Light 11h 14m
Length of Day
10h 17m
Waning Gibbous, 56% of the Moon is Illuminated
Nov 6
Waning Gibbous
Nov 7
Last Quarter
Nov 14
New
Nov 20
First Quarter
Nov 28
Full

Hourly Weather History & Observations

Time (EET) Temp. Dew Point Humidity Pressure Visibility Wind Dir Wind Speed Gust Speed Precip Events Conditions
12:50 AM 39.2 °F 39.2 °F 100% 30.15 in - Calm Calm - N/A   Clear
1:50 AM 37.4 °F 35.6 °F 93% 30.15 in - Variable 1.2 mph - N/A   Clear
2:00 AM 37 °F 36 °F 96%  in 6 mi East 1.2 mph - -  
2:50 AM 35.6 °F 35.6 °F 100% 30.15 in - Calm Calm - N/A   Clear
3:50 AM 35.6 °F 33.8 °F 93% 30.15 in - Calm Calm - N/A   Clear
4:50 AM 35.6 °F 33.8 °F 93% 30.15 in - Calm Calm - N/A   Clear
5:20 AM 33.8 °F 32.0 °F 93% 30.15 in - West 1.2 mph - N/A   Clear
5:50 AM 35.6 °F 33.8 °F 93% 30.15 in - NNW 2.3 mph - N/A   Clear
6:50 AM 35.6 °F 33.8 °F 93% 30.15 in - Calm Calm - N/A   Clear
7:50 AM 42.8 °F 39.2 °F 87% 30.18 in - Variable 1.2 mph - N/A   Clear
8:00 AM 42 °F 39 °F 84%  in 6 mi East 1.2 mph - -  
8:50 AM 50.0 °F 39.2 °F 66% 30.15 in - Calm Calm - N/A   Clear
9:50 AM 55.4 °F 41.0 °F 58% 30.15 in 6.2 mi Variable 1.2 mph - N/A   Partly Cloudy
10:50 AM 59.0 °F 39.2 °F 48% 30.12 in - Calm Calm - N/A   Clear
11:50 AM 62.6 °F 39.2 °F 42% 30.09 in - Calm Calm - N/A   Clear
12:50 PM 64.4 °F 37.4 °F 37% 30.09 in - Variable 2.3 mph - N/A   Clear
1:50 PM 64.4 °F 35.6 °F 34% 30.09 in - Variable 2.3 mph - N/A   Clear
2:00 PM 65 °F 35 °F 22%  in 6 mi East 2.3 mph - -   Clear
2:50 PM 68.0 °F 37.4 °F 33% 30.09 in - Calm Calm - N/A   Clear
3:50 PM 62.6 °F 37.4 °F 39% 30.09 in - Variable 2.3 mph - N/A   Clear
4:50 PM 57.2 °F 39.2 °F 51% 30.09 in - Variable 2.3 mph - N/A   Clear
5:50 PM 53.6 °F 41.0 °F 62% 30.12 in - North 1.2 mph - N/A   Clear
6:50 PM 50.0 °F 39.2 °F 66% 30.12 in - Variable 1.2 mph - N/A   Clear
7:50 PM 48.2 °F 39.2 °F 71% 30.12 in - Variable 1.2 mph - N/A   Clear
8:00 PM 47 °F 39 °F 65%  in 6 mi ENE 1.2 mph - -  
8:50 PM 42.8 °F 39.2 °F 87% 30.15 in - Calm Calm - N/A   Clear
9:50 PM 42.8 °F 37.4 °F 81% 30.15 in - Variable 1.2 mph - N/A   Clear
10:50 PM 41.0 °F 37.4 °F 87% 30.15 in - Variable 1.2 mph - N/A   Clear
11:50 PM 39.2 °F 35.6 °F 87% 30.15 in - Variable 1.2 mph - N/A   Clear